Date String (YYYY-MM-DD hh:mm:ss) UTC,Instrument flags,Ambient pressure (hPa),Sample flow (lpm),Bypass flow (lpm),Sample temperature (°C),Ambient temperature (°C),ASC tube jacket temperature (°C),LED temperature (°C),Box temperature (°C),Sample RH (%),Span deviation,Mass concentration (μg/m³),Mass concentration (μg/m³),Mass concentration (μg/m³)
DateTimeUTC,F1_M11,P_M11,Q1_M11,Q2_M11,T1_M11,T2_M11,T3_M11,T4_M11,T5_M11,U1_M11,ZSPAN_M11,X0_M11,X2_M11,X1_M11
2021-11-04 19:00:00,,0827.6,5.01,0.00,29.4,28.7,00.0,38.3,31.2,13.0,-000.6,0009.09,0004.33,0003.98
2021-11-04 19:01:00,,0827.6,4.98,0.00,29.4,28.7,00.0,38.3,31.2,12.8,-000.3,0008.95,0004.29,0003.97
2021-11-04 19:02:00,,0827.5,5.01,0.00,29.4,28.7,00.0,38.3,31.3,12.7,0000.7,0008.85,0004.27,0003.98
2021-11-04 19:03:00,,0827.5,4.99,0.00,29.5,28.8,00.0,38.3,31.3,12.7,0001.3,0008.57,0004.27,0003.97
2021-11-04 19:04:00,,0827.6,5.00,0.00,29.5,28.8,00.0,38.3,31.3,12.7,0001.4,0008.34,0004.25,0003.96
2021-11-04 19:05:00,,0827.5,5.01,0.00,29.5,28.8,00.0,38.4,31.3,12.7,0001.6,0008.94,0004.23,0003.94
2021-11-04 19:06:00,,0827.5,4.99,0.00,29.5,28.8,00.0,38.4,31.4,12.9,0001.0,0008.98,0004.21,0003.92
2021-11-04 19:07:00,,0827.5,5.01,0.00,29.6,28.8,00.0,38.4,31.4,12.9,0001.2,0008.58,0004.20,0003.90
2021-11-04 19:08:00,,0827.5,4.99,0.00,29.6,28.8,00.0,38.4,31.4,12.7,0001.7,0008.54,0004.20,0003.91
2021-11-04 19:09:00,,0827.4,5.00,0.00,29.6,28.8,00.0,38.4,31.4,12.7,0002.0,0008.52,0004.19,0003.92
2021-11-04 19:10:00,,0827.4,5.01,0.00,29.6,28.9,00.0,38.5,31.4,12.7,0002.3,0008.55,0004.21,0003.95
2021-11-04 19:11:00,,0827.4,4.99,0.00,29.6,28.9,00.0,38.5,31.4,12.4,0002.9,0008.64,0004.22,0003.96
2021-11-04 19:12:00,,0827.4,5.01,0.00,29.6,28.9,00.0,38.5,31.5,12.3,0003.7,0008.35,0004.25,0003.98
2021-11-04 19:13:00,,0827.4,5.00,0.00,29.7,28.9,00.0,38.5,31.5,12.5,0003.6,0008.82,0004.29,0004.00
2021-11-04 19:14:00,,0827.4,5.01,0.00,29.7,29.0,00.0,38.5,31.5,12.6,0003.4,0008.97,0004.34,0004.03
2021-11-04 19:15:00,,0827.4,5.00,0.00,29.7,29.0,00.0,38.6,31.5,12.6,0003.3,0009.01,0004.37,0004.06
2021-11-04 19:16:00,,0827.4,4.99,0.00,29.7,29.0,00.0,38.6,31.5,12.7,0002.8,0008.56,0004.42,0004.10
2021-11-04 19:17:00,,0827.4,5.01,0.00,29.7,29.0,00.0,38.6,31.5,12.7,0002.6,0008.42,0004.48,0004.16
2021-11-04 19:18:00,,0827.4,5.02,0.00,29.8,29.1,00.0,38.6,31.6,13.1,0002.6,0008.50,0004.54,0004.22
2021-11-04 19:19:00,,0827.4,5.01,0.00,29.8,29.1,00.0,38.6,31.6,13.0,0002.5,0008.63,0004.61,0004.29
2021-11-04 19:20:00,,0827.4,4.99,0.00,29.8,29.1,00.0,38.7,31.6,13.0,0001.8,0008.85,0004.71,0004.35
2021-11-04 19:21:00,,0827.4,4.98,0.00,29.8,29.1,00.0,38.7,31.7,13.0,0001.2,0009.43,0004.77,0004.40
2021-11-04 19:22:00,,0827.4,5.00,0.00,29.8,29.2,00.0,38.7,31.7,12.9,0001.0,0009.49,0004.84,0004.46
2021-11-04 19:23:00,,0827.4,5.01,0.00,29.9,29.2,00.0,38.7,31.7,12.8,0000.3,0009.44,0004.90,0004.52
2021-11-04 19:24:00,,0827.3,5.00,0.00,29.9,29.2,00.0,38.7,31.7,12.8,-000.5,0009.35,0004.95,0004.57
2021-11-04 19:25:00,,0827.3,5.00,0.00,29.9,29.2,00.0,38.8,31.7,12.7,-000.7,0010.08,0004.98,0004.60
2021-11-04 19:26:00,,0827.2,4.99,0.00,29.9,29.2,00.0,38.8,31.7,12.5,-000.2,0010.34,0005.00,0004.63
2021-11-04 19:27:00,,0827.2,4.99,0.00,30.0,29.2,00.0,38.8,31.8,12.4,0001.0,0010.40,0005.00,0004.63
2021-11-04 19:28:00,,0827.2,5.01,0.00,30.0,29.2,00.0,38.8,31.8,12.5,0001.3,0010.60,0005.01,0004.64
2021-11-04 19:29:00,,0827.2,4.99,0.00,30.0,29.2,00.0,38.8,31.8,12.6,0001.8,0011.39,0005.05,0004.66
2021-11-04 19:30:00,,0827.2,4.99,0.00,30.0,29.3,00.0,38.9,31.8,12.6,0001.1,0011.48,0005.03,0004.65
2021-11-04 19:31:00,,0827.2,4.99,0.00,30.0,29.3,00.0,38.9,31.8,12.7,0001.2,0011.89,0004.99,0004.63
2021-11-04 19:32:00,,0827.1,4.99,0.00,30.0,29.3,00.0,38.9,31.9,12.5,0001.3,0011.48,0004.98,0004.62
2021-11-04 19:33:00,,0827.2,5.01,0.00,30.1,29.3,00.0,38.9,31.9,12.4,0001.3,0011.52,0004.98,0004.61
2021-11-04 19:34:00,,0827.2,5.00,0.00,30.1,29.3,00.0,38.9,31.9,12.1,0001.9,0011.66,0004.95,0004.58
2021-11-04 19:35:00,,0827.1,5.00,0.00,30.1,29.3,00.0,39.0,31.9,12.1,0002.3,0011.35,0004.91,0004.55
2021-11-04 19:36:00,,0827.4,5.00,0.00,30.1,29.4,00.0,39.0,32.0,12.3,0001.9,0011.05,0004.91,0004.55
2021-11-04 19:37:00,,0827.4,5.00,0.00,30.1,29.4,00.0,39.0,32.0,12.2,0001.7,0011.50,0004.94,0004.55
2021-11-04 19:38:00,,0827.4,5.01,0.00,30.2,29.4,00.0,39.0,32.0,12.0,0001.4,0011.46,0004.94,0004.55
2021-11-04 19:39:00,,0827.1,4.99,0.00,30.2,29.4,00.0,39.0,32.0,12.0,0001.2,0011.40,0004.93,0004.53
2021-11-04 19:40:00,,0827.3,4.99,0.00,30.2,29.4,00.0,39.1,32.0,11.8,0000.7,0010.65,0004.87,0004.48
2021-11-04 19:41:00,,0827.4,5.00,0.00,30.2,29.4,00.0,39.1,32.0,11.8,0000.7,0010.37,0004.81,0004.43
2021-11-04 19:42:00,,0827.1,5.00,0.00,30.2,29.4,00.0,39.1,32.0,11.7,0001.0,0009.76,0004.74,0004.38
2021-11-04 19:43:00,,0827.0,5.00,0.00,30.2,29.5,00.0,39.1,32.0,11.7,0000.7,0009.45,0004.70,0004.34
2021-11-04 19:44:00,,0827.0,4.99,0.00,30.2,29.5,00.0,39.1,32.1,11.9,0000.5,0009.25,0004.66,0004.30
2021-11-04 19:45:00,,0827.0,5.00,0.00,30.3,29.5,00.0,39.1,32.1,11.9,0000.5,0009.00,0004.65,0004.30
2021-11-04 19:46:00,,0827.0,4.99,0.00,30.3,29.5,00.0,39.2,32.1,12.0,0000.1,0009.27,0004.66,0004.31
2021-11-04 19:47:00,,0827.0,4.99,0.00,30.3,29.5,00.0,39.2,32.1,12.0,-000.2,0009.20,0004.66,0004.28
2021-11-04 19:48:00,,0826.9,5.00,0.00,30.3,29.5,00.0,39.2,32.1,11.8,0000.7,0008.64,0004.65,0004.28
2021-11-04 19:49:00,,0827.1,5.00,0.00,30.3,29.5,00.0,39.2,32.1,11.8,0000.5,0008.74,0004.69,0004.30
2021-11-04 19:50:00,,0826.9,5.00,0.00,30.3,29.5,00.0,39.2,32.1,11.9,0000.9,0008.67,0004.69,0004.32
2021-11-04 19:51:00,,0826.9,5.01,0.00,30.3,29.6,00.0,39.2,32.1,11.8,0001.1,0008.93,0004.77,0004.37
2021-11-04 19:52:00,,0826.9,4.99,0.00,30.4,29.6,00.0,39.3,32.1,12.0,0001.4,0009.68,0004.84,0004.42
2021-11-04 19:53:00,,0826.9,5.00,0.00,30.4,29.6,00.0,39.3,32.1,11.8,0000.3,0010.46,0004.93,0004.46
2021-11-04 19:54:00,,0826.9,5.00,0.00,30.4,29.6,00.0,39.3,32.2,12.0,0000.7,0010.84,0004.97,0004.51
2021-11-04 19:55:00,,0827.0,5.01,0.00,30.4,29.6,00.0,39.3,32.2,12.1,0000.4,0010.99,0005.05,0004.57
2021-11-04 19:56:00,,0826.9,5.00,0.00,30.4,29.6,00.0,39.3,32.2,12.0,0000.4,0011.16,0005.13,0004.62
2021-11-04 19:57:00,,0827.0,5.00,0.00,30.4,29.6,00.0,39.3,32.2,12.0,0000.7,0011.01,0005.16,0004.65
2021-11-04 19:58:00,,0827.2,4.99,0.00,30.4,29.6,00.0,39.3,32.2,12.0,0000.8,0011.20,0005.19,0004.69
2021-11-04 19:59:00,,0826.8,5.01,0.00,30.4,29.6,00.0,39.4,32.2,12.0,-000.1,0012.10,0005.21,0004.72
